Regional Weather Roundup
Issued by NWS Boston, MA

Home | Current Version | Previous Version | Text Only | Print | Product List | Glossary On
Versions: 1 2 3 4 5 6 7 8 9 10 11 12 13 14 15 16 17 18 19 20 21 22 23 24 25 26 27
000
ASUS41 KBOX 251410
RWRBOX

REGIONAL WEATHER ROUNDUP
NATIONAL WEATHER SERVICE TAUNTON MA
1000 AM EDT MON JUL 25 2016

NOTE:  "FAIR" INDICATES FEW OR NO CLOUDS BELOW 12,000 FEET WITH NO
SIGNIFICANT WEATHER AND/OR OBSTRUCTIONS TO VISIBILITY.  THE FOLLOWING
OBSERVATION LOCATIONS DO NOT REPORT PRESENT WEATHER...PROVINCETOWN...
SMITHFIELD...BLOCK ISLAND...KEENE...AND OXFORD.

MAZALL-251500-
EASTERN MASSACHUSETTS

CITY           SKY/WX    TMP DP  RH WIND       PRES   REMARKS
BOSTON         MOSUNNY   80  62  54 E7        29.91F
BEVERLY        SUNNY     81  57  43 SE6       29.92F
LAWRENCE       SUNNY     83  57  41 VRB5      29.93F
BEDFORD        SUNNY     83  56  39 VRB3      29.89F
BLUE HILL        N/A     83  65  54 VRB5      29.92F
NORWOOD        SUNNY     84  68  58 VRB3      29.90F
MARSHFIELD     SUNNY     81  68  65 SE8       29.91F
PLYMOUTH       SUNNY     82  68  62 S6        29.92F
TAUNTON        SUNNY     84  70  62 VRB3      29.91F
NEW BEDFORD    SUNNY     84  70  62 S7        29.92F
$$

MAZALL-251500-
CAPE COD AND THE ISLANDS

CITY           SKY/WX    TMP DP  RH WIND       PRES   REMARKS
FALMOUTH       NOT AVBL
HYANNIS        SUNNY     80  70  71 S10       29.93F
CHATHAM        SUNNY     79  71  76 SW7       29.96F
PROVINCETOWN   SUNNY     79  67  66 S9        29.94F
NANTUCKET      SUNNY     75  70  84 S14       29.96F
MARTHAS VNYRD  SUNNY     79  71  76 SW14      29.95F
$$

MAZALL-251500-
CENTRAL AND WESTERN MASSACHUSETTS

CITY           SKY/WX    TMP DP  RH WIND       PRES   REMARKS
WORCESTER      SUNNY     81  65  58 W12       29.95F
FITCHBURG      SUNNY     82  58  43 CALM      29.93F
ORANGE         SUNNY     79  63  57 CALM      29.92F
SPRINGFIELD    PTSUNNY   82  67  61 S9        29.90F
WESTFIELD      SUNNY     81  64  56 S7        29.91F
NORTH ADAMS    MOSUNNY   77  63  61 SE3       29.92F
PITTSFIELD     CLOUDY    79  65  62 S3        29.94F
$$

RIZALL-251500-
RHODE ISLAND

CITY           SKY/WX    TMP DP  RH WIND       PRES   REMARKS
PROVIDENCE     MOSUNNY   80  70  71 VRB7      29.92F
NEWPORT        CLOUDY    80  69  69 S10       29.93F
BLOCK ISLAND   CLOUDY    78  73  84 SW17      29.95F
SMITHFIELD     SUNNY    N/A N/A N/A SW6       29.93S
WESTERLY       MOSUNNY   80  70  71 S7        29.95F
$$

CTZALL-251500-
CONNECTICUT

CITY           SKY/WX    TMP DP  RH WIND       PRES   REMARKS
BRADLEY INTL   PTSUNNY   85  68  56 VRB6      29.90F
HARTFORD       SUNNY     87  70  56 S8        29.91F HX  92
BRIDGEPORT     CLOUDY    81  69  67 SW9       29.93S
DANBURY        CLOUDY    82  67  60 SW9       29.94F
GROTON         CLOUDY    81  71  71 S8        29.93F
NEW HAVEN      PTSUNNY   81  69  67 SW5       29.93F
CHESTER        FAIR      84  66  54 SW9G17    29.95F
MERIDEN        SUNNY     85  65  51 VRB7      29.92F
WILLIMANTIC    NOT AVBL
OXFORD         MOSUNNY   81  66  61 SW9       29.96F
$$

MEZ002-015-021-024-NHZ003-005-008-011-012-014-VTZ005-008-251500-
NORTHERN NEW ENGLAND

CITY           SKY/WX    TMP DP  RH WIND       PRES   REMARKS
PORTLAND ME    PTSUNNY   78  60  53 VRB5      29.93F
BANGOR ME      MOSUNNY   80  60  50 CALM      29.94F
CONCORD NH     CLOUDY    76  58  53 CALM      29.93F
MANCHESTER NH  CLOUDY    77  57  50 NW3       29.91F
NASHUA NH      SUNNY     79  58  48 CALM      29.92F
PORTSMOUTH NH  MOSUNNY   77  61  58 CALM      29.91F
JAFFREY NH     SUNNY     79  62  56 S6        29.95F
KEENE NH       SUNNY     76  61  59 CALM      29.93F
BURLINGTON VT  PTSUNNY   77  61  57 S5        29.88F
MT. WASHINGTON PTSUNNY   55  43  62 W28         N/A
$$

NYZ052-076-251500-
EASTERN NEW YORK

CITY           SKY/WX    TMP DP  RH WIND       PRES   REMARKS
ALBANY         CLOUDY    79  64  60 S6        29.90F
NEW YORK CITY  PTSUNNY   83  72  69 S13       29.92F
$$

ANZALL-251500-
MARINE OBSERVATIONS

STATION/POSITION TIME  TEMP    WIND        PRES    VSBY  WAVE
                       AIR SEA DIR/SP/G                  HT/PER
                 (UTC) (F)     (DEG/KT/KT) (MB)    (MI)  (FT/S)
BOSTON BUOY      1350   71 71  100/  4/  6 1013.2F         1
BUZZARDS BAY     1300   72     200/ 10/ 10 1014.4F
NANTUCKET SOUND  1350   74 72  220/ 14/ 16 1013.8F         1
MASS BAY-STELLWA NOT AVBL
ISLE OF SHOALS   1300   68      20/  4/  5 1013.5F
S OF BLOCK IS    1325      72                N/A           2/ 6
$$

......................KEY.........................
  SKY/WX - SKY CONDITION/PRESENT WEATHER
  TMP    - TEMPERATURE IN FAHRENHEIT
  DWPT   - DEWPOINT IN FAHRENHEIT
  RH     - RELATIVE HUMIDITY IN PERCENT
  WIND   - DIRECTION AND SPEED IN MPH
  PRES   - MEAN SEA LEVEL PRESSURE IN INCHES OF HG
  WCI    - WIND CHILL INDEX
  VSB    - VISIBILITY IN MILES
  HX     - HEAT INDEX
  TC     - TEMPERATURE IN CELSIUS
  VRB    - VARIABLE WIND DIRECTION
  N/A    - NOT AVAILABLE




USA.gov is the U.S. government's official web portal to all federal, state and local government web resources and services.